User: anonymous   Login
Location: Unspecified
(0.0000°N, 0.0000°E)
Time: 10:13:14
(UTC+02:00)
Language:

Cosmos 1626 Rocket - Orbit

View from above orbital plane
View from above orbital plane
View from above satellite
View from above satellite

Ground track
Ground track

The orbit data is extracted from the following two-line orbital elements,

1 15495U 85009B   18114.86819210  .00156188  00000-0  17927-1 0  9992
2 15495  82.5229 255.5019 0021287  23.5521 336.6664 14.84837303796185
Epoch (UTC): 24 April 2018 20:50:11
Eccentricity: 0.0021287
inclination: 82.5229°
perigee height: 599 km
apogee height: 629 km
right ascension of ascending node: 255.5019°
argument of perigee: 23.5521°
revolutions per day: 14.84837303
mean anomaly at epoch: 336.6664°
orbit number at epoch: 79618

The dashed part of the orbit path shows where the satellite is in the earth's shadow,  

DLR